Location: Gebenbach
(49.5378°N, 11.8735°E)
Time: 14:28:31
(UTC+00:00)

Cosmos 1340 - Pass Details

Date: 29 October 2020
Orbit: 501 x 504 km, 81.2° (Epoch: 28 November)

Event Time Altitude Azimuth Distance (km) Brightness Sun altitude
Rises 17:19:59 0° 344° (NNW) 2,619 6.4 -14.3°
Reaches altitude 10° 17:22:08 10° 340° (NNW) 1,729 5.5 -14.6°
Maximum altitude 17:25:51 56° 262° (W) 610 3.4 -15.2°
Drops below altitude 10° 17:29:33 10° 184° (S) 1,715 5.4 -15.8°
Sets 17:31:41 0° 180° (S) 2,595 6.3 -16.2°
